User: anonymous   Login
Location: Unspecified
(0.0000°N, 0.0000°E)
Time: 17:45:44
(UTC+02:00)
Language:

Cosmos 1943 Rocket - Orbit

View from above orbital plane
View from above orbital plane
View from above satellite
View from above satellite

Ground track
Ground track

The orbit data is extracted from the following two-line orbital elements,

1 19120U 88039B   16144.80137414 -.00000069  00000-0 -10247-4 0  9990
2 19120  71.0159  67.6580 0019898  62.4731 297.8413 14.19147341451142
Epoch (UTC): 23 May 2016 19:13:58
Eccentricity: 0.0019898
inclination: 71.0159°
perigee height: 814 km
apogee height: 842 km
right ascension of ascending node: 67.6580°
argument of perigee: 62.4731°
revolutions per day: 14.19147341
mean anomaly at epoch: 297.8413°
orbit number at epoch: 45114

The dashed part of the orbit path shows where the satellite is in the earth's shadow,  

DLR